Weather Service Report


608 
ASUS41 KAKQ 161015
RWRAKQ

REGIONAL WEATHER ROUNDUP
NATIONAL WEATHER SERVICE WAKEFIELD VA
500 AM EST MON JAN 16 2017

Note: "fair" indicates few or no clouds below 12,000 feet with no
significant weather and/or obstructions to visibility. * = Denotes
station may not report precipitation (e.g., rain,snow,etc.),
thunder or fog.

VAZ042-051-052>054-056-161100-
NORTHERN VIRGINIA
  
CITY           SKY/WX    TMP DP  RH WIND       PRES   REMARKS
WASH NATIONAL  CLOUDY    39  27  62 E6        30.45S                  
DULLES         CLOUDY    39  26  59 CALM      30.43R                  
FORT BELVOIR   CLOUDY    38  28  64 CALM      30.44R                  
QUANTICO       CLOUDY    40  32  73 CALM      30.45S                  
FREDERICKSBRG* CLOUDY    39  34  83 S3        30.43S                  
STAFFORD*      CLOUDY    37  32  79 CALM      30.48R                  
WARRENTON      CLOUDY    39  29  66 CALM      30.42S                  
CULPEPER*      CLOUDY    39  30  71 CALM      30.43S                  
MANASSAS*      NOT AVBL                                               
LEESBURG*      CLOUDY    36  28  75 MISG      30.44R                  
WINCHESTER     CLOUDY    34  27  75 CALM      30.39S                  
FRONT ROYAL*   NOT AVBL                                               
LURAY*         CLOUDY    37  28  70 CALM      30.38S                  
$$

VAZ048-049-060>072-079>083-161100-
CENTRAL AND SOUTH CENTRAL VIRGINIA
  
CITY           SKY/WX    TMP DP  RH WIND       PRES   REMARKS
RICHMOND       LGT RAIN  38  36  92 SE5       30.43S                  
CHESTERFIELD*  CLOUDY    39  23  52 SE3       30.44S                  
PETERSBURG*    LGT RAIN  37  36  93 CALM      30.44F                  
HANOVER        CLOUDY    39  36  89 CALM      30.44S                  
TAPPAHANNOCK*  DRIZZLE   38  38 100 CALM      30.44S                  
QUINTON*       CLOUDY    37  35  93 S7        30.44R                  
CHARLOTTSVILLE LGT RAIN  39  35  86 CALM      30.40S                  
GORDONSVILLE*  CLOUDY    37  37 100 CALM      30.40F FOG              
ORANGE*        RAIN      37  37 100 CALM      30.43S                  
LOUISA*        DRIZZLE   43  43 100 CALM      30.40F                  
BUMPASS*       CLOUDY    38  38 100 CALM      30.41F                  
FARMVILLE*     HVY RAIN  40  40 100 CALM      30.41S                  
CREWE*         CLOUDY    38  38 100 CALM      30.42S                  
FORT PICKETT*  CLOUDY    38  35  88 E3        30.42F                  
CHASE CITY*    CLOUDY    40  38  94 CALM      30.41S                  
CLARKSVILLE*   CLOUDY    43  32  65 E7        30.40S                  
SOUTH HILL*    CLOUDY    37  35  90 CALM      30.47S                  
LAWRENCEVILLE* CLOUDY    37  37  97 NE5       30.42S                  
EMPORIA*       MIX PCPN  36  36 100 NE3       30.45S                  
$$

VAZ088>098-161100-
SOUTHEAST VIRGINIA
  
CITY           SKY/WX    TMP DP  RH WIND       PRES   REMARKS
NORFOLK        LGT RAIN  41  36  82 NE3       30.43S                  
VIRGINIA BEACH LGT RAIN  40  36  86 N3        30.43S                  
NORFOLK NAVAL  LGT RAIN  41  37  86 NE3       30.45R                  
WEST POINT*    CLOUDY    37  35  89 CALM      30.46R                  
SALUDA*        CLOUDY    39  35  88 CALM      30.44R                  
NEWPORT NEWS   LGT RAIN  39  36  89 NE3       30.43S                  
LANGLEY AFB    MIX PCPN  40  37  89 NE3       30.43S                  
FORT EUSTIS    CLOUDY    39  34  81 CALM      30.41S                  
WILLIAMSBURG*  CLOUDY    39  36  87 CALM      30.45R                  
HR EXEC AP*    CLOUDY    39  36  87 CALM      30.42S                  
FRANKLIN*      LGT RAIN  37  35  90 NW3       30.45R                  
US460-WAKEFLD  CLOUDY    38  36  92 CALM      30.44R                  
$$

VAZ020-022-025-037-045-161100-
WEST CENTRAL AND SOUTHWEST VIRGINIA
  
CITY           SKY/WX    TMP DP  RH WIND       PRES   REMARKS
STAUNTON*      CLOUDY    36  33  90 CALM      30.38F                  
WAYNESBORO*    CLOUDY    38  37  96 E6        30.36S                  
HOT SPRINGS VA LGT RAIN  36  36 100 S6        30.27S VSB 1/4          
LYNCHBURG      CLOUDY    39  39 100 CALM      30.40F FOG              
DANVILLE       CLOUDY    44  33  65 E5        30.38F                  
SOUTH BOSTON*  CLOUDY    43  30  59 E3        30.40S                  
MARTINSVILLE   CLOUDY    43  37  80 CALM      30.39S                  
ROANOKE        CLOUDY    40  38  93 SE7       30.38S                  
BLACKSBURG     CLOUDY    41  41 100 E5        30.35S FOG              
DUBLIN*        FOG       43  43 100 NE3       30.33S VSB 3/4          
MARION*        FOG       49  47  96 E5        30.32R VSB 1/4          
HILLSVILLE*    FOG       43  43 100 CALM      30.30R VSB 1/2          
RICHLANDS*     CLOUDY   N/A N/A N/A CALM      30.28R HAZE             
WISE*          FOG       50  50 100 CALM      30.29R VSB 1/4          
ABINGDON*      FOG       55  55 100 CALM      30.27S VSB 1/4          
$$

MDZ021>025-VAZ099-100-161100-
SOUTHERN MARYLAND AND THE DELMARVA PENINSULA
  
CITY           SKY/WX    TMP DP  RH WIND       PRES   REMARKS
PATUXENT RIVER CLOUDY    38  30  73 E6        30.44S                  
BAY BRIDGE APT CLOUDY    34  25  69 MISG      30.46R                  
LEONARDTOWN    CLOUDY    36  30  80 CALM      30.45S                  
DOVER          PTCLDY    30  28  94 CALM      30.45R                  
GEORGETOWN     PTCLDY    31  27  85 CALM      30.46R                  
EASTON         CLOUDY    32  28  85 CALM      30.48S                  
CAMBRIDGE      CLOUDY    34  28  80 CALM      30.44S                  
SALISBURY      CLOUDY    34  28  79 NE5       30.44S                  
OCEAN CITY     CLOUDY    34  32  92 N3        30.44S                  
WALLOPS ISLAND CLOUDY    38  32  79 CALM      30.44S                  
ACCOMACK*      CLOUDY    39  34  81 CALM      30.43S                  
$$

NCZ012>017-030>032-161100-
NORTH CENTRAL AND EASTERN NORTH CAROLINA
  
CITY           SKY/WX    TMP DP  RH WIND       PRES   REMARKS
ROANOKE RAPIDS CLOUDY    41  30  65 NE6       30.42S                  
RALEIGH        CLOUDY    46  35  65 E6        30.38F                  
ELIZABETH CITY CLOUDY    42  37  82 NE15      30.42R                  
AHOSKIE*         N/A     39  30  70 N6        30.43S                  
EDENTON*       CLOUDY    44  36  73 CALM      30.42S                  
CURRITUCK*     DRIZZLE   42  39  87 N8        30.43R                  
KILL DEVIL HLS NOT AVBL                                               
MANTEO         CLOUDY    45  39  79 NE14      30.40R                  
CAPE HATTERAS  CLOUDY    48  42  80 NE10G18   30.36S                  
TARBORO*       NOT AVBL                                               
GOLDSBORO      LGT RAIN  43  39  87 E7        30.37S                  
WASHINGTON     CLOUDY    42  35  78 NE5       30.41R                  
GREENVILLE     CLOUDY    43  32  65 E6        30.40S                  
NEW BERN       CLOUDY    43  38  82 N6        30.40R                  
WILMINGTON     CLOUDY    48  43  82 NE10      30.35R                  
$$

VAZ048-161100-
ELSEWHERE
  
CITY           SKY/WX    TMP DP  RH WIND       PRES   REMARKS
HARRISBURG PA  CLOUDY    22  20  92 CALM      30.44R                  
BALTIMORE      CLOUDY    34  26  72 E5        30.45S                  
ANNAPOLIS      CLOUDY    37  26  64 E3        30.45S                  
ANDREWS AFB    CLOUDY    36  26  69 NE3       30.43R                  
PHILADELPHIA   CLEAR     27  19  72 N5        30.46F                  
HENDERSON NC   CLOUDY    40  28  60 E7        30.39F                  
GREENSBORO     CLOUDY    46  42  86 E6        30.35S                  
ROCKY MOUNT    CLOUDY    44  24  45 NE7       30.41R                  
$$

VAZ100-161100-
MARINE
  
STATION/POSITION TIME  TEMP    WIND        PRES    WAVE   SWELL
                       AIR SEA DIR/SP/G            HT/PER HT/PER
                 (UTC) (F)     (DEG/KT/KT) (MB)    (FT/S) (FT/S)
CAPE MAY NJ      0948   31 40   30/  2/  4 1030.9R
LEWES DE         0948   35 41   40/  7/  8 1031.1R
OCEAN-CITY-INLET 0948   39 42   30/  4/  6 1031.1F
WACHAPREAGUE VA  0948   39 44   20/  5/  6 1030.4F
THOMAS POINT MD  1000   36 38   90/  4/  5   N/A
GOOSES REEF MD   0950   38     120/  8/  8 1031.3F
COVE POINT MD    0948   37     110/  5/  6 1031.3F
SOLOMONS ISLAND  0948   39 41   90/  6/  7   N/A
BISHOPS HEAD MD  0948   37 40   50/  5/  6 1030.9F
PINEY POINT MD   0948          110/  6/  7   N/A
POTOMAC MD       0950   39      80/  8/  8 1030.0R
CAMBRIDGE MD     0948   36 38   80/  4/  5 1030.3S
LEWISETTA VA     0948   40 42  100/  7/  7 1030.5R
RAPPAHANNOCK LGT 0948           40/  5/  5 1031.1R
STINGRAY PT      0950   39      90/  6/  6 1030.9R
YORK RVR RNG VA  0948   40      50/  6/  6 1030.0R
YORKTOWN VA      0948   40 42   50/  4/  5 1030.4R
JAMESTOWN VA     0950   38      50/  2/  4   N/A
DOMINION TERM VA 0948   40      60/  4/  5 1030.5S
KIPTOPEKE VA     0948      43   60/  2/  3   N/A
CHES BAY BRIDGE  0948   41 42   40/  5/  6 1030.4S
CAPE HENRY VA    0948   41     360/  5/  5   N/A
WILLOUBY STN VA  0948   40      40/  6/  6 1031.4R
S CRANEY ISL VA  0948   40      50/  6/  7 1030.3R
CAPE HENRY BUOY  0942      47                N/A     3/11
OFFSHORE WE BUOY 0951      49                N/A     3/11   2/11
64NM E OF VA BCH 0950   49 57   10/ 14/ 17 1028.8F   3/ 8   2/ 8
DUCK PIER NC     0948   44 44   10/ 14/ 16 1029.1R
44100 DUCK FRF   0935      46                N/A     4/ 6   2/11
44056 DUCK FRF   0930      45                N/A     3/ 6   2/11
OREGON INLET NC  0942   46 48   10/ 11/ 17 1028.9S
HATTERAS NC      0948   47 53   30/ 11/ 16 1027.6R
DIAMOND SHLS NC  0950   57 74   40/ 17/ 21 1027.1F   5/ 5   2/10
CAPE LOOKOUT NC  0900   45      10/ 11/ 15 1027.4R
$$
  

Return to Home page


Western Regional Climate Center, wrcc@dri.edu